TimeCST,TemperatureF,Dew PointF,Humidity,Sea Level PressureIn,VisibilityMPH,Wind Direction,Wind SpeedMPH,Gust SpeedMPH,PrecipitationIn,Events,Conditions,WindDirDegrees,DateUTC
12:00 AM,32.0,27.0,82,29.81,8.0,South,9.2,-,N/A,,Overcast,190,2014-01-10 06:00:00
12:53 AM,30.9,27.0,85,29.84,7.0,South,10.4,-,N/A,,Overcast,180,2014-01-10 06:53:00
1:53 AM,32.0,28.0,85,29.82,7.0,South,11.5,-,N/A,,Overcast,180,2014-01-10 07:53:00
2:28 AM,32.0,28.0,85,29.75,6.0,South,11.5,-,N/A,,Overcast,180,2014-01-10 08:28:00
2:53 AM,32.0,28.0,85,29.79,6.0,South,12.7,-,N/A,,Overcast,190,2014-01-10 08:53:00
3:53 AM,32.0,28.9,88,29.77,5.0,SSW,10.4,-,N/A,,Overcast,200,2014-01-10 09:53:00
4:53 AM,32.0,28.9,88,29.75,5.0,SSW,9.2,-,N/A,,Overcast,210,2014-01-10 10:53:00
5:53 AM,32.0,28.9,88,29.72,5.0,SSW,9.2,-,N/A,,Overcast,200,2014-01-10 11:53:00
6:35 AM,32.0,28.9,88,29.66,4.0,SSW,6.9,-,N/A,,Overcast,210,2014-01-10 12:35:00
6:53 AM,30.9,28.9,92,29.70,3.0,SSW,9.2,-,N/A,,Overcast,210,2014-01-10 12:53:00
7:04 AM,30.9,28.9,92,29.64,2.5,SSW,8.1,-,N/A,,Overcast,210,2014-01-10 13:04:00
7:21 AM,30.9,28.9,92,29.64,1.5,SSW,6.9,-,N/A,,Overcast,200,2014-01-10 13:21:00
7:53 AM,30.9,30.0,96,29.70,0.8,SSW,9.2,-,N/A,,Overcast,200,2014-01-10 13:53:00
8:16 AM,30.9,30.0,96,29.64,0.2,SSW,10.4,-,N/A,Fog,Light Freezing Fog,200,2014-01-10 14:16:00
8:53 AM,32.0,30.0,92,29.68,0.5,SSW,8.1,-,N/A,Fog,Fog,200,2014-01-10 14:53:00
9:24 AM,32.0,30.0,92,29.63,1.2,SSW,8.1,-,N/A,,Overcast,200,2014-01-10 15:24:00
9:53 AM,32.0,30.0,92,29.67,2.5,SSW,6.9,-,N/A,,Overcast,210,2014-01-10 15:53:00
10:05 AM,32.0,30.0,92,29.62,3.0,SSW,8.1,-,N/A,,Overcast,210,2014-01-10 16:05:00
10:44 AM,32.0,30.0,92,29.62,5.0,SW,8.1,-,N/A,,Overcast,220,2014-01-10 16:44:00
10:53 AM,33.1,30.0,89,29.66,6.0,SW,8.1,-,N/A,,Overcast,220,2014-01-10 16:53:00
11:53 AM,35.1,30.0,82,29.61,7.0,WSW,9.2,-,N/A,,Overcast,250,2014-01-10 17:53:00
12:53 PM,35.1,30.0,82,29.58,7.0,West,9.2,-,N/A,,Overcast,260,2014-01-10 18:53:00
1:51 PM,35.6,30.2,81,29.52,7.0,WSW,11.5,-,N/A,,Overcast,250,2014-01-10 19:51:00
1:53 PM,36.0,30.0,79,29.57,7.0,WSW,11.5,-,N/A,,Overcast,250,2014-01-10 19:53:00
2:01 PM,36.0,30.0,79,29.52,7.0,WSW,10.4,-,N/A,,Overcast,250,2014-01-10 20:01:00
2:53 PM,37.0,30.9,79,29.57,6.0,WSW,8.1,-,0.00,,Haze,250,2014-01-10 20:53:00
3:00 PM,37.0,30.9,79,29.53,7.0,West,9.2,-,N/A,,Overcast,270,2014-01-10 21:00:00
3:53 PM,39.9,28.9,65,29.57,10.0,NW,11.5,-,N/A,,Overcast,320,2014-01-10 21:53:00
4:53 PM,37.0,30.0,76,29.59,10.0,NW,4.6,-,N/A,,Mostly Cloudy,320,2014-01-10 22:53:00
5:53 PM,34.0,28.0,79,29.61,10.0,WNW,6.9,-,N/A,,Partly Cloudy,300,2014-01-10 23:53:00
6:53 PM,32.0,26.1,79,29.64,10.0,WNW,6.9,-,N/A,,Partly Cloudy,290,2014-01-11 00:53:00
7:53 PM,30.9,25.0,79,29.67,10.0,WNW,6.9,-,N/A,,Clear,300,2014-01-11 01:53:00
8:53 PM,30.0,24.1,79,29.68,10.0,WNW,6.9,-,N/A,,Clear,300,2014-01-11 02:53:00
9:53 PM,28.0,23.0,81,29.71,10.0,West,9.2,-,N/A,,Clear,280,2014-01-11 03:53:00
10:53 PM,28.0,23.0,81,29.72,10.0,West,9.2,-,N/A,,Clear,270,2014-01-11 04:53:00
11:53 PM,27.0,21.9,81,29.73,10.0,West,9.2,-,N/A,,Scattered Clouds,280,2014-01-11 05:53:00